Overview Statistics Trail Chart Weather Telemetry Raw packets
 

This is the latest recevied weather packets stored in our database for station/object KO4ZGL-13. If no packets are shown the sender has not sent any weather packets the latest 10 day(s).

<< 51 52 53 54 55 56 57 >>
Time Temp. Humidity Pressure Rain* Wind** Luminosity Snow
1788305726 29.44° C 82% 1017.3 hPa 0 mm - 6 W/m² -
1788305422 30° C 82% 1017.3 hPa 0 mm - 9 W/m² -
1788305117 30° C 82% 1017.3 hPa 0 mm - 11 W/m² -
1788304812 30° C 81% 1017.5 hPa 0 mm - 15 W/m² -
1788304509 30.56° C 82% 1017.3 hPa 0 mm - 17 W/m² -
1788304205 30.56° C 81% 1017.4 hPa 0 mm - 19 W/m² -
1788303904 31.11° C 81% 1017.5 hPa 0 mm - 23 W/m² -
1788303599 31.11° C 80% 1017.2 hPa 0 mm - 26 W/m² -
1788303294 31.11° C 80% 1017.2 hPa 0 mm - 29 W/m² -
1788302989 31.11° C 79% 1017.3 hPa 0 mm - 32 W/m² -
1788302685 31.11° C 79% 1017.5 hPa 0 mm - 33 W/m² -
1788302381 31.11° C 80% 1017.4 hPa 0 mm - 36 W/m² -
1788302076 31.11° C 80% 1017.3 hPa 0 mm - 38 W/m² -
1788301772 31.11° C 78% 1017.3 hPa 0 mm - 40 W/m² -
1788301468 31.67° C 76% 1017 hPa 0 mm - 43 W/m² -
1788301164 31.67° C 76% 1017.2 hPa 0 mm - 45 W/m² -
1788300859 31.67° C 75% 1017.2 hPa 0 mm - 52 W/m² -
1788300554 32.78° C 72% 1017.4 hPa 0 mm - 73 W/m² -
1788300253 32.78° C 72% 1017.2 hPa 0 mm - 176 W/m² -
1788299956 32.78° C 70% 1017.3 hPa 0 mm - 183 W/m² -
1788299651 33.89° C 70% 1017.2 hPa 0 mm - 186 W/m² -
1788299350 33.33° C 65% 1017.2 hPa 0 mm - 224 W/m² -
1788299049 33.89° C 67% 1016.9 hPa 0 mm - 239 W/m² -
1788298757 34.44° C 68% 1017.2 hPa 0 mm - 247 W/m² -
1788298444 35° C 68% 1017.4 hPa 0 mm - 273 W/m² -

* Rain latest hour (hover to see other rain measurements)
** Current wind speed in m/s (hover to see current wind gust speed)